Location: Waco, TX
(31.5480°N, 97.1670°W)
Time: 23:48:03
(UTC-05:00)

ISS - Pass Details

Date: 18 September 2017
Orbit: 401 x 408 km, 51.6° (Epoch: 22 October)

Event Time Altitude Azimuth Distance (km) Brightness Sun altitude
Rises 08:12:18 0° 295° (WNW) 2,332 -0.6 11.4°
Reaches altitude 10° 08:15:01 10° 270° (W) 1,466 -1.6 12.0°
Maximum altitude 08:16:59 15° 234° (SW) 1,199 -1.8 12.4°
Drops below altitude 10° 08:18:56 10° 197° (SSW) 1,457 -1.1 12.8°
Sets 08:21:38 0° 172° (S) 2,310 0.2 13.4°
